| time (UTC) | temp F | wind direction | speed MPH | gust MPH | rain 1hr in | rain 24hr in | rain mn in | humidity % | barometer mb |
| 20260510194543 | 70 | 328 | 0.0 | 4.0 | 0.00 | 0.03 | 0.03 | 38 | 1015.4 |
| 20260510193035 | 69 | 65 | 0.0 | 12.0 | 0.00 | 0.03 | 0.03 | 39 | 1015.4 |
| 20260510191529 | 69 | 292 | 0.0 | 13.0 | 0.00 | 0.03 | 0.03 | 39 | 1015.4 |
| 20260510190040 | 69 | 273 | 0.0 | 7.0 | 0.00 | 0.03 | 0.03 | 41 | 1015.3 |
| 20260510184519 | 68 | 44 | 0.0 | 0.0 | 0.00 | 0.03 | 0.03 | 41 | 1015.2 |
| 20260510183049 | 69 | 356 | 0.0 | 0.0 | 0.00 | 0.03 | 0.03 | 45 | 1015.4 |
| 20260510181555 | 68 | 324 | 0.0 | 0.0 | 0.00 | 0.03 | 0.03 | 41 | 1015.5 |
| 20260510180006 | 68 | 302 | 0.0 | 0.0 | 0.00 | 0.03 | 0.03 | 44 | 1015.5 |
| 20260510174502 | 68 | 264 | 0.0 | 0.0 | 0.00 | 0.03 | 0.03 | 43 | 1015.6 |
| 20260510173058 | 68 | 6 | 0.0 | 0.0 | 0.00 | 0.03 | 0.03 | 43 | 1015.6 |
| 20260510171528 | 67 | 129 | 0.0 | 0.0 | 0.00 | 0.03 | 0.03 | 44 | 1015.5 |
| 20260510170020 | 66 | 23 | 0.0 | 0.0 | 0.00 | 0.03 | 0.03 | 47 | 1015.3 |
| 20260510164548 | 66 | 77 | 0.0 | 0.0 | 0.00 | 0.03 | 0.03 | 49 | 1015.2 |
| 20260510163042 | 65 | 102 | 0.0 | 0.0 | 0.00 | 0.03 | 0.03 | 46 | 1015.5 |
| 20260510161534 | 66 | 21 | 0.0 | 3.0 | 0.00 | 0.03 | 0.03 | 46 | 1015.4 |
| 20260510160036 | 65 | 187 | 0.0 | 0.0 | 0.00 | 0.03 | 0.03 | 49 | 1015.4 |
| 20260510154533 | 64 | 72 | 0.0 | 0.0 | 0.00 | 0.03 | 0.03 | 50 | 1015.2 |
| 20260510153039 | 63 | 47 | 0.0 | 9.0 | 0.00 | 0.03 | 0.03 | 52 | 1015.3 |
| 20260510151547 | 63 | 37 | 0.0 | 0.0 | 0.00 | 0.03 | 0.03 | 58 | 1015.3 |
| 20260510150051 | 62 | 104 | 0.0 | 0.0 | 0.00 | 0.03 | 0.03 | 60 | 1014.9 |
| 20260510144548 | 62 | 75 | 0.0 | 0.0 | 0.00 | 0.03 | 0.03 | 61 | 1014.9 |
| 20260510143031 | 61 | 61 | 0.0 | 0.0 | 0.00 | 0.03 | 0.03 | 61 | 1014.7 |
| 20260510141528 | 60 | 70 | 0.0 | 0.0 | 0.00 | 0.03 | 0.03 | 66 | 1014.6 |
| 20260510140023 | 60 | 65 | 0.0 | 13.0 | 0.00 | 0.03 | 0.03 | 68 | 1014.3 |
| 20260510134516 | 60 | 68 | 0.0 | 0.0 | 0.00 | 0.03 | 0.03 | 73 | 1014.0 |
| 20260510133012 | 59 | 72 | 0.0 | 0.0 | 0.00 | 0.03 | 0.03 | 74 | 1013.7 |
| 20260510131509 | 58 | 34 | 0.0 | 0.0 | 0.00 | 0.03 | 0.03 | 80 | 1013.4 |
| 20260510130003 | 57 | 61 | 0.0 | 0.0 | 0.00 | 0.03 | 0.03 | 82 | 1013.2 |
| 20260510124559 | 56 | 89 | 0.0 | 0.0 | 0.00 | 0.03 | 0.03 | 83 | 1013.0 |
| 20260510123057 | 56 | 55 | 0.0 | 0.0 | 0.00 | 0.03 | 0.03 | 86 | 1012.8 |
| 20260510121548 | 55 | 53 | 0.0 | 0.0 | 0.01 | 0.03 | 0.03 | 87 | 1012.5 |
| 20260510120043 | 0 | 0.0 | 0.0 | 0.01 | 0.03 | 0.03 | 1012.2 | ||
| 20260510114537 | 0 | 0.0 | 0.0 | 0.03 | 0.03 | 0.03 | 1012.1 | ||
| 20260510113033 | 55 | 86 | 0.0 | 0.0 | 0.03 | 0.03 | 0.03 | 87 | 1012.1 |
| 20260510111533 | 56 | 340 | 0.0 | 0.0 | 0.02 | 0.02 | 0.02 | 87 | 1012.4 |
| 20260510110029 | 57 | 25 | 0.0 | 0.0 | 0.02 | 0.02 | 0.02 | 83 | 1012.1 |
| 20260510104608 | 57 | 358 | 0.0 | 0.0 | 0.00 | 0.03 | 0.00 | 82 | 1011.6 |
| 20260510103054 | 57 | 28 | 0.0 | 0.0 | 0.00 | 0.03 | 0.00 | 82 | 1011.1 |
| 20260510101555 | 58 | 323 | 0.0 | 0.0 | 0.00 | 0.03 | 0.00 | 81 | 1011.1 |
| 20260510100054 | 58 | 311 | 0.0 | 0.0 | 0.00 | 0.03 | 0.00 | 80 | 1010.8 |
| 20260510094557 | 58 | 34 | 0.0 | 0.0 | 0.00 | 0.06 | 0.00 | 77 | 1010.7 |
| 20260510093050 | 58 | 291 | 0.0 | 0.0 | 0.00 | 0.06 | 0.00 | 77 | 1010.5 |
| 20260510091543 | 59 | 291 | 0.0 | 0.0 | 0.00 | 0.06 | 0.00 | 76 | 1010.4 |
| 20260510090042 | 59 | 291 | 0.0 | 0.0 | 0.00 | 0.06 | 0.00 | 76 | 1010.3 |
| 20260510084556 | 58 | 275 | 0.0 | 0.0 | 0.00 | 0.10 | 0.00 | 78 | 1010.3 |
| 20260510083058 | 56 | 35 | 0.0 | 0.0 | 0.00 | 0.10 | 0.00 | 82 | 1010.3 |
| 20260510081538 | 57 | 35 | 0.0 | 0.0 | 0.00 | 0.10 | 0.00 | 81 | 1010.0 |
| 20260510080034 | 57 | 51 | 0.0 | 0.0 | 0.00 | 0.10 | 0.00 | 79 | 1009.7 |
| 20260510074533 | 58 | 236 | 0.0 | 0.0 | 0.00 | 0.11 | 0.00 | 76 | 1009.2 |
| 20260510073044 | 59 | 236 | 0.0 | 0.0 | 0.00 | 0.11 | 0.00 | 75 | 1009.2 |
| 20260510071529 | 59 | 200 | 0.0 | 0.0 | 0.00 | 0.11 | 0.00 | 75 | 1009.2 |
| 20260510070026 | 59 | 205 | 0.0 | 0.0 | 0.00 | 0.11 | 0.00 | 75 | 1009.2 |
| 20260510064525 | 60 | 214 | 0.0 | 0.0 | 0.00 | 0.12 | 0.00 | 73 | 1009.4 |
| 20260510063023 | 60 | 207 | 0.0 | 0.0 | 0.00 | 0.12 | 0.00 | 72 | 1009.4 |
| 20260510061522 | 60 | 233 | 0.0 | 0.0 | 0.00 | 0.12 | 0.00 | 72 | 1009.6 |
| 20260510060033 | 60 | 196 | 0.0 | 0.0 | 0.00 | 0.12 | 0.00 | 72 | 1009.7 |
| 20260510054518 | 60 | 225 | 0.0 | 0.0 | 0.00 | 0.12 | 0.00 | 72 | 1009.6 |
| 20260510053017 | 60 | 212 | 0.0 | 0.0 | 0.00 | 0.12 | 0.00 | 72 | 1009.5 |
| 20260510051513 | 61 | 167 | 0.0 | 0.0 | 0.00 | 0.12 | 0.00 | 70 | 1009.6 |
| 20260510050012 | 61 | 221 | 0.0 | 0.0 | 0.00 | 0.12 | 0.00 | 68 | 1009.6 |
| 20260510044511 | 61 | 236 | 0.0 | 0.0 | 0.00 | 0.12 | 0.00 | 68 | 1009.7 |
| 20260510043010 | 61 | 215 | 0.0 | 0.0 | 0.00 | 0.12 | 0.00 | 69 | 1009.6 |
| 20260510041510 | 61 | 217 | 0.0 | 0.0 | 0.00 | 0.12 | 0.00 | 69 | 1009.6 |
| 20260510040037 | 62 | 183 | 0.0 | 0.0 | 0.00 | 0.12 | 0.00 | 68 | 1009.6 |
| 20260510034536 | 62 | 172 | 0.0 | 0.0 | 0.00 | 0.12 | 0.00 | 67 | 1009.5 |
| 20260510033033 | 63 | 219 | 0.0 | 0.0 | 0.00 | 0.12 | 0.00 | 66 | 1009.4 |
| 20260510031529 | 63 | 167 | 0.0 | 0.0 | 0.00 | 0.12 | 0.00 | 65 | 1009.4 |
| 20260510030033 | 64 | 160 | 0.0 | 0.0 | 0.00 | 0.12 | 0.00 | 63 | 1009.2 |
| 20260510024532 | 64 | 265 | 0.0 | 0.0 | 0.00 | 0.12 | 0.00 | 63 | 1009.1 |
| 20260510023018 | 65 | 219 | 0.0 | 0.0 | 0.00 | 0.12 | 0.00 | 60 | 1009.0 |
| 20260510021517 | 65 | 212 | 0.0 | 0.0 | 0.00 | 0.12 | 0.00 | 59 | 1008.9 |
| 20260510020013 | 66 | 235 | 0.0 | 0.0 | 0.00 | 0.12 | 0.00 | 58 | 1008.6 |
| 20260510014512 | 67 | 241 | 0.0 | 0.0 | 0.00 | 0.12 | 0.00 | 56 | 1008.4 |
| 20260510013045 | 68 | 240 | 0.0 | 0.0 | 0.00 | 0.12 | 0.00 | 55 | 1008.3 |
| 20260510011535 | 68 | 224 | 0.0 | 0.0 | 0.00 | 0.12 | 0.00 | 54 | 1008.0 |
| 20260510010030 | 69 | 229 | 0.0 | 0.0 | 0.00 | 0.12 | 0.00 | 53 | 1007.8 |
| 20260510004527 | 69 | 245 | 0.0 | 0.0 | 0.00 | 0.12 | 0.00 | 52 | 1007.6 |
| 20260510003030 | 70 | 236 | 0.0 | 0.0 | 0.00 | 0.12 | 0.00 | 51 | 1007.3 |
| 20260510001521 | 72 | 226 | 0.0 | 0.0 | 0.00 | 0.12 | 0.00 | 48 | 1007.1 |
| 20260510000046 | 73 | 235 | 0.0 | 0.0 | 0.00 | 0.12 | 0.00 | 48 | 1006.9 |
| 20260509234543 | 73 | 261 | 0.0 | 0.0 | 0.00 | 0.12 | 0.00 | 48 | 1006.8 |
| 20260509233039 | 74 | 293 | 0.0 | 0.0 | 0.00 | 0.12 | 0.00 | 48 | 1006.8 |
| 20260509231538 | 74 | 216 | 0.0 | 4.0 | 0.00 | 0.12 | 0.00 | 47 | 1006.6 |
| 20260509230040 | 74 | 220 | 0.0 | 7.0 | 0.00 | 0.12 | 0.00 | 46 | 1006.5 |
| 20260509224538 | 75 | 257 | 0.0 | 0.0 | 0.00 | 0.12 | 0.00 | 45 | 1006.5 |
| 20260509223035 | 74 | 240 | 0.0 | 0.0 | 0.00 | 0.12 | 0.00 | 46 | 1006.5 |
| 20260509221533 | 74 | 187 | 0.0 | 0.0 | 0.00 | 0.12 | 0.00 | 46 | 1006.5 |
| 20260509220031 | 74 | 309 | 0.0 | 18.0 | 0.00 | 0.12 | 0.00 | 43 | 1006.6 |
| 20260509214532 | 74 | 231 | 0.0 | 11.0 | 0.00 | 0.12 | 0.12 | 46 | 1006.6 |
| 20260509213058 | 74 | 150 | 0.0 | 9.0 | 0.00 | 0.12 | 0.12 | 46 | 1006.5 |
| 20260509211556 | 74 | 184 | 0.0 | 11.0 | 0.00 | 0.12 | 0.12 | 47 | 1006.7 |
| 20260509210029 | 74 | 272 | 0.0 | 8.0 | 0.00 | 0.12 | 0.12 | 49 | 1006.8 |
| 20260509204524 | 73 | 203 | 0.0 | 4.0 | 0.00 | 0.12 | 0.12 | 51 | 1006.8 |
| 20260509203055 | 73 | 238 | 0.0 | 0.0 | 0.00 | 0.12 | 0.12 | 49 | 1007.0 |
| 20260509201553 | 73 | 156 | 2.0 | 12.0 | 0.00 | 0.12 | 0.12 | 51 | 1007.1 |
| 20260509200052 | 72 | 254 | 2.0 | 11.0 | 0.00 | 0.12 | 0.12 | 54 | 1007.3 |